STARLINK-31327, 59160

Orbit data source: Space-Track

STARLINK-31327, 59160 is a payload satellite owned by SpaceX/Seattle (US) in LEO that was launched on Mon, 04 Mar 2024 UTC via an FALCON 9 launch vehicle from the Air Force Eastern Test Range (AFETR). Payload-class satellites include a variety of spacecraft equipped with specific instruments for various scientific and technological missions. These include communications satellites like Starlink; space stations such as the ISS; scientific satellites like the Hubble; Earth observation satellites from companies like Planet Labs, Umbra, and HawkEye 360; GPS; miniature CubeSats for education and research; and military/defense satellites.

Loading next visibility...
Identifier
59160, 2024-044J
Orbit
LEO
Country
Flag of USUS
Related business
Manufacturer
SpaceX/Seattle
Mission
Operational Commercial Communications
Bus & Motor
STARLINK V2M, Unknown motor
Mass
730 kg wet, ~700 kg dry
Launch date (UTC)
2024-03-04 (2 years ago)
Launch vehicle
FALCON 9
Launch site
Air Force Eastern Test Range (AFETR)
Object type
Payload
Rocket body
Debris
Shape & HBR
Box + 2 Pan, 14.5 m
Radar Cross Section
33.884 m², Large (>1 m²)

Expand to show TLE details & history
Last TLE update: 10 hours ago

TLE from 10 hours ago
0 STARLINK-31327
1 59160U 24044J   25251.19627381  .00003079  00000-0  12125-3 0  9990
2 59160  43.0044  57.8161 0002220 274.1842  85.8756 15.27613414 85680
Epoch: 2025-09-08T04:42Z
TLE epoch observation values (Epoch: 2025-09-08T04:42:38.057Z)
Latitude
-0°
Longitude
-0.34734°
Altitude
482.616 km
Speed
7.626 km/s
True Right ascension
03h 51m 15s
True Declination
0° 00' 00"
Sunlit
Object was in daylight at epoch
Visualization orbit readout
Latitude
Unknown
Longitude
Unknown
Altitude
Unknown
Speed
Unknown
Apparent Right ascension
Unknown
Apparent Declination
Unknown
Sunlit
N/A
Visualization observer readout
Local Sidereal Time
06:24:19
Azimuth
Unknown
Elevation
Unknown
Doppler factor
Unknown
Orbital elements
Apogee altitude
486.417 km
Perigee altitude
483.37 km
Semi-major axis
6,863.031 km
Eccentricity
0.00022
Inclination
43.0044°
RAAN
57.8161°
Arg. of periapsis
274.1842°
True anomaly
85.90097°
Mean anomaly
85.8756°
Eccentric anomaly
85.88829°
Mean motion
3.81741 °/min
Orbital period
94.3 mins
BSTAR
0.00012125
Loading maneuver chart data...
Computing Atmospheric mass density...
Loading historical data...
Loading historical data...
Loading historical data...
Loading historical data...
Loading historical data...
Loading historical data...
Loading historical data...

Documentation

Showing up to 5 results
|